When you browse on this site, cookies collect data to enhance your experience and personalize the content and advertising you see.
Visit our Privacy Policy to learn more. By continuing to use the site, you agree to this use of cookies and data.

Hourly Weather Starosele

Today, 13 August, Thursday

Time Temperature Precipitation Wind Pressure Humidity
00:00 +9°C° 0 mm 2 mps 749 mmHg 88%
01:00 +9°C° 0 mm 2 mps 749 mmHg 88%
02:00 +9°C° 0 mm 2 mps 749 mmHg 88%
03:00 +8°C° 0 mm 2 mps 749 mmHg 89%
04:00 +8°C° 0 mm 2 mps 749 mmHg 90%
05:00 +7°C° 0 mm 2 mps 748 mmHg 91%
06:00 +9°C° 0 mm 2 mps 748 mmHg 84%
07:00 +12°C° 0 mm 2 mps 749 mmHg 78%
08:00 +14°C° 0 mm 2 mps 749 mmHg 71%
09:00 +14°C° 0 mm 3 mps 749 mmHg 66%
10:00 +16°C° 0 mm 3 mps 749 mmHg 61%
11:00 +17°C° 0 mm 3 mps 749 mmHg 55%
12:00 +17°C° 0 mm 3 mps 748 mmHg 56%
13:00 +18°C° 0 mm 3 mps 748 mmHg 56%
14:00 +18°C° 0 mm 3 mps 748 mmHg 57%
15:00 +18°C° 0 mm 3 mps 748 mmHg 59%
16:00 +17°C° 0 mm 2 mps 748 mmHg 62%
17:00 +17°C° 0 mm 2 mps 748 mmHg 65%
18:00 +16°C° 0 mm 2 mps 748 mmHg 69%
19:00 +15°C° 0 mm 2 mps 748 mmHg 74%
20:00 +14°C° 0 mm 1 mps 748 mmHg 79%
21:00 +14°C° 0 mm 1 mps 748 mmHg 78%
22:00 +14°C° 0 mm 1 mps 748 mmHg 77%
23:00 +13°C° 0 mm 0 mps 748 mmHg 77%

Tomorrow, 14 August, Friday

Time Temperature Precipitation Wind Pressure Humidity
00:00 +13°C° 0 mm 1 mps 748 mmHg 79%
01:00 +13°C° 0 mm 1 mps 748 mmHg 82%
02:00 +12°C° 0 mm 1 mps 748 mmHg 85%
03:00 +11°C° 0 mm 1 mps 748 mmHg 87%
04:00 +11°C° 0 mm 1 mps 748 mmHg 90%
05:00 +10°C° 0 mm 1 mps 748 mmHg 92%
06:00 +12°C° 0 mm 1 mps 749 mmHg 86%
07:00 +14°C° 0 mm 1 mps 749 mmHg 79%
08:00 +16°C° 0 mm 1 mps 749 mmHg 73%
09:00 +18°C° 0 mm 1 mps 749 mmHg 67%
10:00 +19°C° 0 mm 1 mps 749 mmHg 61%
11:00 +21°C° 0 mm 1 mps 749 mmHg 55%
12:00 +21°C° 0 mm 1 mps 749 mmHg 53%
13:00 +21°C° 0 mm 1 mps 748 mmHg 52%
14:00 +22°C° 0 mm 1 mps 748 mmHg 50%
15:00 +21°C° 0 mm 1 mps 748 mmHg 52%
16:00 +21°C° 0 mm 1 mps 748 mmHg 55%
17:00 +21°C° 0 mm 1 mps 748 mmHg 57%
18:00 +19°C° 0 mm 1 mps 748 mmHg 63%
19:00 +18°C° 0 mm 1 mps 748 mmHg 69%
20:00 +15°C° 0 mm 2 mps 748 mmHg 74%
21:00 +14°C° 0 mm 2 mps 748 mmHg 75%
22:00 +14°C° 0 mm 2 mps 748 mmHg 76%
23:00 +13°C° 0 mm 2 mps 749 mmHg 77%

Day after tomorrow, 15 August, Saturday

Time Temperature Precipitation Wind Pressure Humidity
00:00 +13°C° 0 mm 2 mps 749 mmHg 78%
01:00 +13°C° 0 mm 2 mps 749 mmHg 79%
02:00 +13°C° 0 mm 2 mps 749 mmHg 79%
03:00 +13°C° 0 mm 2 mps 749 mmHg 81%
04:00 +12°C° 0 mm 2 mps 748 mmHg 82%
05:00 +12°C° 0 mm 2 mps 748 mmHg 84%
06:00 +14°C° 0 mm 2 mps 749 mmHg 80%
07:00 +15°C° 0 mm 2 mps 749 mmHg 76%
08:00 +17°C° 0 mm 2 mps 749 mmHg 73%
09:00 +19°C° 0.1 mm 2 mps 749 mmHg 69%
10:00 +20°C° 0.1 mm 2 mps 749 mmHg 65%
11:00 +23°C° 0.1 mm 2 mps 749 mmHg 61%
12:00 +23°C° 0.2 mm 2 mps 749 mmHg 61%
13:00 +23°C° 0.2 mm 2 mps 749 mmHg 61%
14:00 +22°C° 0.2 mm 3 mps 748 mmHg 62%
15:00 +22°C° 0.1 mm 3 mps 748 mmHg 63%
16:00 +22°C° 0.1 mm 3 mps 748 mmHg 63%
17:00 +22°C° 0.1 mm 3 mps 748 mmHg 64%
18:00 +21°C° 0.1 mm 2 mps 748 mmHg 71%
19:00 +19°C° 0.1 mm 2 mps 748 mmHg 78%
20:00 +17°C° 0.1 mm 2 mps 748 mmHg 85%
21:00 +17°C° 0 mm 2 mps 748 mmHg 87%
22:00 +16°C° 0 mm 2 mps 748 mmHg 89%
23:00 +16°C° 0 mm 2 mps 748 mmHg 91%

16 August, Sunday

Time Temperature Precipitation Wind Pressure Humidity
00:00 +15°C° 0 mm 2 mps 748 mmHg 92%
01:00 +15°C° 0 mm 2 mps 747 mmHg 93%
02:00 +15°C° 0 mm 2 mps 747 mmHg 94%
03:00 +15°C° 0 mm 2 mps 747 mmHg 95%
04:00 +14°C° 0 mm 2 mps 747 mmHg 95%
05:00 +14°C° 0 mm 2 mps 747 mmHg 95%
06:00 +16°C° 0 mm 2 mps 747 mmHg 90%
07:00 +18°C° 0 mm 2 mps 747 mmHg 85%
08:00 +19°C° 0 mm 2 mps 747 mmHg 80%
09:00 +21°C° 0.1 mm 3 mps 748 mmHg 74%
10:00 +22°C° 0.1 mm 3 mps 748 mmHg 69%
11:00 +25°C° 0.1 mm 3 mps 748 mmHg 63%
12:00 +25°C° 0.2 mm 3 mps 748 mmHg 61%
13:00 +26°C° 0.2 mm 3 mps 747 mmHg 60%
14:00 +26°C° 0.2 mm 3 mps 747 mmHg 58%
15:00 +26°C° 0.1 mm 3 mps 747 mmHg 60%
16:00 +26°C° 0.1 mm 2 mps 747 mmHg 63%
17:00 +26°C° 0.1 mm 2 mps 747 mmHg 65%
18:00 +24°C° 0.1 mm 2 mps 747 mmHg 71%
19:00 +22°C° 0.1 mm 1 mps 747 mmHg 77%
20:00 +20°C° 0.1 mm 1 mps 747 mmHg 83%
21:00 +20°C° 0 mm 1 mps 747 mmHg 85%
22:00 +19°C° 0 mm 1 mps 746 mmHg 87%
23:00 +18°C° 0 mm 1 mps 746 mmHg 89%

17 August, Monday

Time Temperature Precipitation Wind Pressure Humidity
00:00 +18°C° 0 mm 1 mps 746 mmHg 90%
01:00 +18°C° 0 mm 1 mps 746 mmHg 91%
02:00 +16°C° 0 mm 1 mps 746 mmHg 92%
03:00 +16°C° 0 mm 1 mps 746 mmHg 92%
04:00 +16°C° 0 mm 1 mps 746 mmHg 93%
05:00 +16°C° 0 mm 1 mps 746 mmHg 93%
06:00 +18°C° 0 mm 1 mps 746 mmHg 88%
07:00 +20°C° 0 mm 1 mps 746 mmHg 83%
08:00 +22°C° 0 mm 1 mps 746 mmHg 78%
09:00 +23°C° 0.5 mm 1 mps 746 mmHg 74%
10:00 +24°C° 0.5 mm 2 mps 746 mmHg 71%
11:00 +25°C° 0.5 mm 2 mps 746 mmHg 67%
12:00 +26°C° 0.7 mm 2 mps 745 mmHg 64%
13:00 +26°C° 0.7 mm 2 mps 745 mmHg 61%
14:00 +27°C° 0.7 mm 2 mps 745 mmHg 59%
15:00 +26°C° 0.4 mm 2 mps 744 mmHg 61%
16:00 +26°C° 0.4 mm 2 mps 744 mmHg 64%
17:00 +26°C° 0.4 mm 2 mps 743 mmHg 67%
18:00 +24°C° 0.1 mm 1 mps 743 mmHg 70%
19:00 +22°C° 0.1 mm 1 mps 743 mmHg 74%
20:00 +20°C° 0.1 mm 1 mps 743 mmHg 77%
21:00 +19°C° 0 mm 2 mps 742 mmHg 78%
22:00 +18°C° 0 mm 2 mps 742 mmHg 79%
23:00 +17°C° 0 mm 2 mps 742 mmHg 80%

18 August, Tuesday

Time Temperature Precipitation Wind Pressure Humidity
00:00 +17°C° 0.1 mm 2 mps 742 mmHg 83%
01:00 +16°C° 0.1 mm 2 mps 742 mmHg 86%
02:00 +16°C° 0.1 mm 2 mps 741 mmHg 89%
03:00 +16°C° 0.3 mm 2 mps 741 mmHg 90%
04:00 +16°C° 0.3 mm 1 mps 741 mmHg 90%
05:00 +18°C° 0.3 mm 1 mps 741 mmHg 90%
06:00 +18°C° 0 mm 1 mps 740 mmHg 88%
07:00 +19°C° 0 mm 1 mps 740 mmHg 86%
08:00 +20°C° 0 mm 1 mps 740 mmHg 85%
09:00 +21°C° 0 mm 1 mps 740 mmHg 80%
10:00 +21°C° 0 mm 1 mps 740 mmHg 75%
11:00 +21°C° 0 mm 2 mps 740 mmHg 70%
12:00 +24°C° 0 mm 2 mps 739 mmHg 66%
13:00 +25°C° 0 mm 1 mps 739 mmHg 61%
14:00 +26°C° 0 mm 1 mps 739 mmHg 57%
15:00 +25°C° 0.2 mm 1 mps 738 mmHg 60%
16:00 +25°C° 0.2 mm 1 mps 738 mmHg 62%
17:00 +25°C° 0.2 mm 1 mps 738 mmHg 65%
18:00 +23°C° 0 mm 1 mps 738 mmHg 71%
19:00 +21°C° 0 mm 1 mps 738 mmHg 77%
20:00 +19°C° 0 mm 1 mps 738 mmHg 84%
21:00 +19°C° 0 mm 1 mps 738 mmHg 85%
22:00 +18°C° 0 mm 1 mps 738 mmHg 87%
23:00 +16°C° 0 mm 0 mps 738 mmHg 88%
Show more